[[{"header":{"parameterUnit":"m.s-1","parameterCategory":1,"la1":30.2991,"la2":30.254,"lo1":-89.0895,"lo2":-89.0444,"dy":0.0017,"dx":0.0017,"nx":28,"ny":28,"refTime":"2025-11-19T09:00:00:Z","depth":0,"parameterNumber":2,"parameterNumberName":"U-component_of_WINDS"},"data":[0,0,0,0,0,0,0,0,0,0,0,0,0,0,0,0,0,0,0,0,0,0,0,0,0,0,0,0,0,0,0,0,0,0,0,0,0,0,0,0,0,0,0,0,0,0,0,0,0,0,0,0,0,0,0,0,0,0,-0.8074,-0.8074,0,-0.8083,-0.8083,-0.8083,-0.806,-0.8059,-0.8058,-0.8058,-0.8066,-0.8067,-0.8068,0,0,0,0,0,0,0,0,0,0,0,0,0,-0.8036,-0.8037,-0.8074,-0.8074,-0.8074,-0.8083,-0.8083,-0.8083,-0.806,-0.8059,-0.8058,-0.8057,-0.8066,-0.8067,-0.8068,0,0,0,0,0,0,0,0,0,0,0,0,0,-0.805,-0.8037,-0.8074,-0.8064,-0.8063,-0.8083,-0.8083,-0.8084,-0.806,-0.8059,-0.8058,-0.8057,-0.8065,-0.8067,-0.8068,-0.8098,0,0,-0.8072,-0.8073,0,0,0,0,0,0,0,0,-0.8049,-0.8051,-0.8065,-0.8064,-0.8064,-0.8069,-0.8073,-0.8088,-0.806,-0.8061,-0.8058,-0.8056,-0.8068,-0.8069,-0.8073,-0.8099,-0.8099,-0.8072,-0.8073,-0.8074,-0.8074,0,0,0,0,0,0,0,-0.8048,-0.805,-0.8078,-0.8065,-0.8064,-0.8059,-0.8059,-0.8076,-0.8071,-0.8061,-0.8059,-0.8061,-0.8067,-0.8072,-0.8073,-0.8099,-0.8072,-0.8073,-0.8074,-0.8075,-0.8151,-0.8153,0,0,0,0,0,0,-0.8048,-0.805,-0.8077,-0.8078,-0.8053,-0.806,-0.8061,-0.8069,-0.807,-0.807,-0.8062,-0.806,-0.807,-0.8072,-0.8073,-0.8109,-0.8074,-0.8075,-0.8076,-0.815,-0.8152,-0.8153,0,0,0,0,0,0,-0.8048,-0.8051,-0.8077,-0.8063,-0.8066,-0.8062,-0.8071,-0.8069,-0.8074,-0.8071,-0.807,-0.8067,-0.8069,-0.8071,-0.8093,-0.8109,-0.8076,-0.8077,-0.8149,-0.8151,-0.8152,-0.8182,0,0,0,0,0,0,-0.8047,-0.8051,-0.8062,-0.8064,-0.8067,-0.8096,-0.8072,-0.807,-0.8076,-0.8074,-0.8076,-0.8075,-0.8069,-0.8091,-0.8094,-0.8111,-0.8078,-0.8147,-0.815,-0.8152,-0.8179,-0.8185,-0.8189,0,0,0,0,0,-0.8045,-0.807,-0.8063,-0.8067,-0.8081,-0.8097,-0.8099,-0.8091,-0.8078,-0.8089,-0.8088,-0.8075,-0.8107,-0.8093,-0.8097,-0.8114,-0.8146,-0.8149,-0.8152,-0.8177,-0.8184,-0.8189,0,0,0,0,0,0,-0.8069,-0.807,-0.8062,-0.8088,-0.8093,-0.8093,-0.8107,-0.8098,-0.8106,-0.8104,-0.8093,-0.8094,-0.8117,-0.8118,-0.8102,-0.8144,-0.8124,-0.8128,-0.8143,-0.8149,-0.8153,-0.8152,-0.8079,0,0,0,0,0,-0.8078,-0.8091,-0.8091,-0.8113,-0.8116,-0.8112,-0.8118,-0.8112,-0.8116,-0.8118,-0.8118,-0.8123,-0.8134,-0.8141,-0.8151,-0.818,-0.818,-0.8193,-0.8198,-0.8202,-0.8205,-0.8221,-0.8227,-0.8162,-0.8162,-0.8162,0,0,-0.8095,-0.8097,-0.8106,-0.8118,-0.8121,-0.8135,-0.8113,-0.8129,-0.8139,-0.812,-0.8141,-0.8141,-0.8145,-0.8171,-0.8182,-0.8172,-0.8223,-0.8206,-0.8209,-0.821,-0.8224,-0.823,-0.8236,-0.8164,-0.8164,-0.8163,0,0,-0.8134,-0.8137,-0.8156,-0.816,-0.8165,-0.8162,-0.8167,-0.8169,-0.8169,-0.819,-0.8176,-0.8188,-0.8208,-0.8212,-0.8216,-0.8258,-0.8247,-0.8262,-0.8286,-0.8302,-0.8307,-0.8311,-0.8327,-0.8332,-0.8265,-0.8265,-0.8265,0,-0.8154,-0.8175,-0.8167,-0.8184,-0.819,-0.8175,-0.8195,-0.8199,-0.8207,-0.8212,-0.8201,-0.8226,-0.8227,-0.8254,-0.8264,-0.8268,-0.8274,-0.8261,-0.8307,-0.8311,-0.8315,-0.833,-0.8335,-0.8267,-0.8267,-0.8266,-0.8266,0,-0.82,-0.8215,-0.823,-0.8239,-0.8247,-0.8265,-0.826,-0.8269,-0.8263,-0.8261,-0.8283,-0.8285,-0.8296,-0.8301,-0.8295,-0.8327,-0.8321,-0.8309,-0.8289,-0.8323,-0.8337,-0.8342,-0.8269,-0.8269,-0.8268,-0.8268,0,0,-0.8252,-0.8259,-0.8264,-0.8269,-0.8274,-0.8285,-0.8303,-0.8315,-0.8323,-0.8329,-0.8344,-0.8362,-0.8351,-0.8356,-0.835,-0.8364,-0.8397,-0.835,-0.835,-0.8359,-0.8433,-0.8442,-0.8449,-0.839,-0.8391,-0.8392,-0.8433,0,-0.8291,-0.8322,-0.8316,-0.8346,-0.836,-0.8347,-0.8363,-0.8368,-0.8367,-0.8379,-0.8378,-0.839,-0.8375,-0.8378,-0.8391,-0.8391,-0.8412,-0.8388,-0.8404,-0.8405,-0.8403,-0.8456,-0.8465,-0.8503,-0.8438,-0.8439,-0.844,0,-0.8339,-0.8348,-0.838,-0.8385,-0.839,-0.8404,-0.8415,-0.8426,-0.8432,-0.8431,-0.8438,-0.8429,-0.8447,-0.8428,-0.8453,-0.8436,-0.8443,-0.8444,-0.8445,-0.8446,-0.8424,-0.8458,-0.8515,-0.8521,-0.8448,-0.8447,-0.8447,0,-0.8374,-0.8395,-0.8417,-0.8421,-0.8427,-0.8437,-0.844,-0.8445,-0.8453,-0.8462,-0.8467,-0.8478,-0.8483,-0.8492,-0.8487,-0.8474,-0.8513,-0.8493,-0.8512,-0.8513,-0.8521,-0.852,-0.858,-0.8526,-0.8526,-0.8525,-0.8525,0,-0.8417,-0.8437,-0.8433,-0.8446,-0.8468,-0.8462,-0.8484,-0.8486,-0.8491,-0.8504,-0.8494,-0.8506,-0.85,-0.8512,-0.8508,-0.853,-0.8533,-0.8532,-0.8531,-0.8533,-0.8533,-0.8536,-0.8533,-0.8527,-0.8527,-0.8526,-0.8526,0,-0.8459,-0.8457,-0.848,-0.8485,-0.8486,-0.8503,-0.8506,-0.8519,-0.8518,-0.8536,-0.8539,-0.8538,-0.8552,-0.8549,-0.8564,-0.8562,-0.8589,-0.8584,-0.8587,-0.8586,-0.8605,-0.8603,-0.8669,-0.8677,-0.8618,-0.8618,-0.8619,0,-0.8486,-0.8501,-0.8508,-0.8517,-0.8521,-0.8535,-0.8543,-0.8538,-0.8546,-0.8555,-0.8567,-0.8581,-0.8591,-0.8615,-0.8615,-0.8627,-0.8622,-0.8645,-0.8624,-0.8626,-0.8623,-0.8622,-0.8623,-0.8648,-0.8649,-0.865,-0.865,0,-0.8534,-0.8533,-0.8545,-0.8558,-0.8568,-0.8577,-0.8586,-0.8593,-0.8589,-0.8599,-0.8614,-0.8623,-0.8639,-0.8653,-0.8664,-0.8667,-0.8658,-0.8657,-0.8662,-0.8664,-0.8665,-0.8665,-0.8598,-0.8655,-0.8655,-0.8654,-0.8654,-0.8654,-0.857,-0.8583,-0.859,-0.8605,-0.8611,-0.8619,-0.8632,-0.8633,-0.8646,-0.8659,-0.8656,-0.8673,-0.8679,-0.8694,-0.8698,-0.8712,-0.8703,-0.871,-0.8712,-0.8714,-0.8717,-0.8663,-0.8714,-0.8713,-0.8713,-0.8713,-0.8713,0,-0.8618,-0.8622,-0.8636,-0.8648,-0.866,-0.8651,-0.866,-0.867,-0.8686,-0.8693,-0.8704,-0.8722,-0.8736,-0.8738,-0.8751,-0.8761,-0.8757,-0.8765,-0.8764,-0.8764,-0.8723,-0.8718,-0.8768,-0.8768,-0.8768,-0.8768,-0.8767,-0.8767,-0.8644,-0.8666,-0.8666,-0.8692,-0.8696,-0.8713,-0.872,-0.8727,-0.8733,-0.8754,-0.8766,-0.8767,-0.8773,-0.8786,-0.8798,-0.8799,-0.8804,-0.8813,-0.8811,-0.8773,-0.8767,-0.8762,-0.8757,-0.8814,-0.8814,-0.8851,-0.8852,-0.8852]},{"header":{"parameterUnit":"m.s-1","parameterCategory":1,"la1":30.2991,"la2":30.254,"lo1":-89.0895,"lo2":-89.0444,"dy":0.0017,"dx":0.0017,"nx":28,"ny":28,"refTime":"2025-11-19T09:00:00:Z","depth":0,"parameterNumber":3,"parameterNumberName":"V-component_of_WINDS"},"data":[0,0,0,0,0,0,0,0,0,0,0,0,0,0,0,0,0,0,0,0,0,0,0,0,0,0,0,0,0,0,0,0,0,0,0,0,0,0,0,0,0,0,0,0,0,0,0,0,0,0,0,0,0,0,0,0,0,0,1.3391,1.339,0,1.3297,1.3296,1.3295,1.3227,1.3226,1.3226,1.3225,1.3126,1.3124,1.3122,0,0,0,0,0,0,0,0,0,0,0,0,0,1.351,1.3508,1.3391,1.339,1.3389,1.3297,1.3296,1.3295,1.3227,1.3226,1.3226,1.3225,1.3126,1.3124,1.3121,0,0,0,0,0,0,0,0,0,0,0,0,0,1.3441,1.3507,1.3391,1.3344,1.3339,1.3298,1.3296,1.3294,1.3227,1.3226,1.3226,1.3225,1.3127,1.3124,1.3121,1.3118,0,0,1.3111,1.311,0,0,0,0,0,0,0,0,1.3445,1.3437,1.3352,1.3347,1.3342,1.3273,1.3301,1.3235,1.3227,1.327,1.3225,1.3224,1.3175,1.3168,1.3152,1.3113,1.3109,1.3111,1.3109,1.3108,1.3107,0,0,0,0,0,0,0,1.345,1.3441,1.3354,1.3351,1.3345,1.3327,1.3316,1.3288,1.3228,1.3266,1.3261,1.3251,1.3172,1.3155,1.3149,1.3107,1.3111,1.3108,1.3106,1.3105,1.3062,1.3063,0,0,0,0,0,0,1.3463,1.3445,1.3357,1.3351,1.3393,1.3325,1.3314,1.3296,1.3228,1.3217,1.3252,1.3248,1.3161,1.3153,1.3145,1.3138,1.3108,1.3105,1.3103,1.3061,1.3062,1.3063,0,0,0,0,0,0,1.3465,1.3455,1.3361,1.3397,1.3383,1.3324,1.3305,1.3294,1.3278,1.3217,1.3206,1.3246,1.316,1.315,1.3126,1.3133,1.3103,1.31,1.306,1.3062,1.3063,1.3123,0,0,0,0,0,0,1.3469,1.3457,1.3456,1.3397,1.3382,1.3343,1.3305,1.3293,1.3273,1.3267,1.3209,1.3198,1.3159,1.3131,1.3123,1.3129,1.3098,1.3059,1.3061,1.3062,1.312,1.3126,1.3131,0,0,0,0,0,1.3474,1.3475,1.3456,1.3445,1.3379,1.3344,1.3335,1.329,1.3274,1.3271,1.3233,1.32,1.3134,1.3129,1.3119,1.3124,1.3059,1.3061,1.3062,1.3117,1.3125,1.3131,0,0,0,0,0,0,1.3534,1.3466,1.3444,1.3427,1.3392,1.3333,1.3328,1.3299,1.3267,1.3263,1.3208,1.3195,1.3177,1.3148,1.3143,1.3118,1.3092,1.3092,1.3138,1.3144,1.315,1.3157,1.3095,0,0,0,0,0,1.3546,1.3524,1.3466,1.3456,1.344,1.3388,1.337,1.3339,1.33,1.3284,1.3244,1.3207,1.3177,1.3159,1.3129,1.3115,1.3102,1.3114,1.312,1.3125,1.3125,1.3117,1.3122,1.3069,1.3069,1.3069,0,0,1.3569,1.3529,1.3519,1.3467,1.3436,1.3415,1.3375,1.3353,1.3336,1.3281,1.3256,1.3225,1.3179,1.3161,1.3151,1.3136,1.3137,1.3127,1.3131,1.3129,1.3119,1.3124,1.3129,1.307,1.307,1.307,0,0,1.36,1.3568,1.3557,1.3528,1.3482,1.3447,1.3445,1.339,1.3368,1.3343,1.3301,1.328,1.323,1.32,1.3178,1.32,1.3169,1.3191,1.3221,1.3213,1.3217,1.3221,1.3229,1.3232,1.3192,1.3192,1.3192,0,1.3634,1.3601,1.3555,1.3536,1.3515,1.3466,1.3454,1.3427,1.3373,1.3359,1.3344,1.3282,1.3248,1.3222,1.3228,1.3212,1.3207,1.3198,1.3221,1.3224,1.3226,1.3233,1.3236,1.3195,1.3195,1.3195,1.3194,0,1.3645,1.3623,1.3619,1.3571,1.3549,1.3534,1.3485,1.3469,1.344,1.3407,1.3382,1.334,1.3301,1.3292,1.3263,1.3262,1.3255,1.3231,1.3204,1.3235,1.3241,1.3243,1.32,1.3199,1.3198,1.3197,0,0,1.3711,1.3639,1.3638,1.3616,1.3563,1.3544,1.3527,1.349,1.3477,1.3442,1.3426,1.3387,1.3365,1.334,1.3307,1.3301,1.3322,1.3277,1.3275,1.3287,1.3319,1.3338,1.3342,1.3301,1.3301,1.3302,1.3323,0,1.3734,1.3702,1.3661,1.3642,1.3621,1.3575,1.356,1.3525,1.3494,1.3471,1.3436,1.3409,1.3382,1.3367,1.3359,1.3321,1.3327,1.3319,1.3285,1.3285,1.3298,1.3345,1.3364,1.3386,1.3325,1.3326,1.3326,0,1.3756,1.3726,1.3706,1.3656,1.3646,1.3633,1.3597,1.3575,1.3535,1.3513,1.3487,1.3452,1.3432,1.3408,1.3379,1.3374,1.3358,1.3338,1.3337,1.3332,1.3307,1.3341,1.3392,1.3396,1.3329,1.3329,1.3328,0,1.3807,1.3761,1.3743,1.3725,1.3667,1.3659,1.3634,1.3593,1.3574,1.3542,1.3529,1.3495,1.3476,1.345,1.3407,1.3394,1.3382,1.3355,1.3363,1.3364,1.3362,1.3363,1.3412,1.3352,1.3352,1.3352,1.3352,0,1.3837,1.3826,1.3765,1.3754,1.3741,1.3694,1.3683,1.3653,1.3618,1.36,1.3557,1.3541,1.3485,1.3463,1.3428,1.341,1.3401,1.3383,1.3374,1.3387,1.3389,1.3375,1.3372,1.3353,1.3353,1.3353,1.3353,0,1.3891,1.3849,1.3827,1.3774,1.3761,1.3753,1.3708,1.3695,1.3663,1.3641,1.3633,1.3581,1.3552,1.3507,1.3464,1.3441,1.3429,1.3414,1.3443,1.3437,1.3448,1.3448,1.349,1.3493,1.3432,1.3432,1.3433,0,1.3912,1.3904,1.3851,1.3837,1.3814,1.3791,1.3772,1.3726,1.3707,1.3663,1.3656,1.3624,1.3596,1.3552,1.351,1.3478,1.3462,1.3479,1.3457,1.347,1.3462,1.3464,1.3463,1.3484,1.3485,1.3486,1.3486,0,1.3956,1.3936,1.3911,1.388,1.3859,1.3831,1.3801,1.3792,1.3739,1.372,1.3691,1.367,1.3628,1.3597,1.3559,1.3532,1.35,1.3494,1.3494,1.3507,1.3524,1.3515,1.3457,1.3493,1.3492,1.3492,1.3491,1.3491,1.3994,1.3985,1.3947,1.3921,1.3894,1.3867,1.3854,1.382,1.3796,1.3759,1.3733,1.3706,1.3667,1.3613,1.3588,1.3565,1.3551,1.3552,1.3552,1.3552,1.3557,1.3528,1.3558,1.3558,1.3558,1.3558,1.3557,0,1.4036,1.401,1.3986,1.3947,1.3927,1.39,1.3866,1.3851,1.3828,1.3795,1.3769,1.3737,1.3707,1.3664,1.363,1.3621,1.3606,1.3614,1.3614,1.3609,1.3572,1.3575,1.3627,1.3627,1.3627,1.3627,1.3627,1.3627,1.4055,1.4038,1.4015,1.3984,1.3957,1.3932,1.3915,1.389,1.3864,1.383,1.3806,1.3778,1.3741,1.3705,1.3677,1.3665,1.3655,1.3668,1.3651,1.3617,1.3611,1.3605,1.3608,1.3666,1.3666,1.369,1.369,1.369]}]]